Regional Weather Roundup
Issued by NWS

Home | Current Version | Previous Version | Graphics & Text | Print | Product List | Glossary On
Versions: 1 2 3 4 5 6 7 8 9 10 11 12 13 14 15 16 17 18 19 20 21 22 23 24 25 26 27 28 29 30 31 32 33 34 35 36 37 38 39 40 41 42 43 44 45 46 47 48 49 50
000
ASUS43 KDMX 230607
RWRIA

WEATHER ROUNDUP FOR IOWA
NATIONAL WEATHER SERVICE DES MOINES IA
100 AM CDT SAT AUG 23 2014

NOTE: "FAIR" INDICATES FEW OR NO CLOUDS BELOW 12,000 FEET WITH NO
SIGNIFICANT WEATHER AND/OR OBSTRUCTIONS TO VISIBILITY.

* - THESE STATIONS ARE NOT NWS STATIONS...THUS NOT UNDER NWS
QUALITY CONTROL.  THEY ALSO DO NOT REPORT WEATHER SUCH
AS PRECIPITATION OR FOG.

IAZ001>003-012>014-020>022-031>034-043>046-230700-
   NORTHWEST IOWA

CITY           SKY/WX    TMP DP  RH WIND       PRES   REMARKS
CARROLL *      CLOUDY    70  68  94 NE5       29.94F
CHEROKEE *       N/A     74  72  95 NE7       29.96S
DENISON *      CLEAR     72  72 100 CALM      29.93F
LE MARS *        N/A     75  72  88 NE7       29.96S
ORANGE CITY *  CLEAR     73  70  88 E7        29.97S
SHELDON *      MOCLDY    72  70  94 E7        29.97S
SIOUX CITY     CLOUDY    77  72  84 VRB3      29.94R
6HR MIN TEMP:  75; 6HR MAX TEMP:  86; 6HR PCP: TRACE;

SPENCER        CLOUDY    74  70  87 E10       29.99F
6HR MIN TEMP:  73; 6HR MAX TEMP:  83;

STORM LAKE *   PTCLDY    73  73 100 NE12      29.97F
$$

IAZ055>058-069>071-079>083-090>094-230700-
   SOUTHWEST IOWA

CITY           SKY/WX    TMP DP  RH WIND       PRES   REMARKS
ATLANTIC *     CLOUDY    72  70  94 NE5       29.92F
AUDUBON *      PTCLDY    73  70  88 CALM      29.96S
CLARINDA *     MOCLDY    75  72  88 CALM      29.92F
COUNCIL BLFS * MOCLDY    73  73 100 CALM      29.93R
CRESTON *      MOCLDY    73  72  94 CALM      29.95S
HARLAN  *      CLEAR     72  72 100 N7        29.97S
LAMONI           N/A     78  75  90 CALM      29.93F HX  81
6HR MIN TEMP:  76; 6HR MAX TEMP:  82;

RED OAK *      MOCLDY    73  72  94 N3        29.92S
SHENANDOAH *   MOCLDY    75  73  94 CALM      29.91F
$$

IAZ047>049-059>061-072>074-084-230700-
   CENTRAL IOWA

CITY           SKY/WX    TMP DP  RH WIND       PRES   REMARKS
AMES             N/A     76  75  97 CALM      29.93F FOG
6HR MIN TEMP:  76; 6HR MAX TEMP:  82; 6HR PCP: TRACE;

ANKENY *       CLEAR     75  75 100 NE3       29.94R
CHARITON *     CLEAR     75  75 100 S6        29.94F FOG
DES MOINES       N/A     78  75  90 NE3       29.93S HX  81
6HR MIN TEMP:  77; 6HR MAX TEMP:  83;

GRINNELL*        N/A     75  72  88 NE7       29.97R
KNOXVILLE *    CLEAR     77  75  94 CALM      29.93S FOG
MARSHALLTOWN   TSTM      73  71  93 SE10      29.95S FOG
6HR MIN TEMP:  73; 6HR MAX TEMP:  83; 6HR PCP:  0.91;

PELLA *          N/A     77  76  98 E3        29.95R FOG
PERRY *          N/A     73  73 100 CALM      29.94S
$$

IAZ004>006-015-016-023>025-035-036-230700-
   NORTH CENTRAL IOWA

CITY           SKY/WX    TMP DP  RH WIND       PRES   REMARKS
ALGONA *         N/A     73  72  94 NE7G14    29.99S
CLARION *      CLOUDY    75  72  88 NE7       29.97S
ESTHERVILLE    MOCLDY    70  69  97 E8        29.99F
6HR MIN TEMP:  70; 6HR MAX TEMP:  80;

FORT DODGE *     N/A     72  70  94 NE6       29.97F
MASON CITY       N/A     72  70  93 NE6       30.00F
6HR MIN TEMP:  72; 6HR MAX TEMP:  82;

FOREST CITY *  PTCLDY    72  72 100 NE8       29.99F
IOWA FALLS *   CLOUDY    76  73  91 NE5       29.96F
$$

IAZ007>011-017>019-026>030-037>042-050>054-066-230700-
   NORTHEAST IOWA

CITY           SKY/WX    TMP DP  RH WIND       PRES   REMARKS
CEDAR RAPIDS     N/A     76  75  97 N5        29.96R
6HR MIN TEMP:  74; 6HR MAX TEMP:  81;

CHARLES CITY * CLEAR     73  72  94 NE9       29.98F
CLINTON *        N/A     73  72  94 NE3       29.98S
DECORAH *      MOCLDY    73  72  94 N5        29.98S
DUBUQUE          N/A     74  73  97 S3        29.96F
6HR MIN TEMP:  74; 6HR MAX TEMP:  82;

MONTICELLO *   PTCLDY    73  73 100 CALM      29.95S
OELWEIN *      MOCLDY    75  75 100 NE6       29.97R
WATERLOO       CLOUDY    76  73  91 CALM      29.95R
6HR MIN TEMP:  74; 6HR MAX TEMP:  81;

$$

IAZ064-065-067-068-078-230700-
   EAST CENTRAL IOWA

CITY           SKY/WX    TMP DP  RH WIND       PRES   REMARKS
DAVENPORT        N/A     73  71  93 E5        29.95F
6HR MIN TEMP:  73; 6HR MAX TEMP:  83;

IOWA CITY      MOCLDY    76  75  97 CALM      29.95S
6HR MIN TEMP:  75; 6HR MAX TEMP:  84;

MT. PLEASANT *   N/A     76  74  95 S3        29.93F FOG
MUSCATINE *    PTCLDY    75  73  94 N3        29.94S
QUAD CITIES    MOCLDY    76  73  91 E6        29.93F
6HR MIN TEMP:  73; 6HR MAX TEMP:  84;

$$

IAZ062-063-075>077-085>089-095>099-230700-
   SOUTHEAST IOWA

CITY           SKY/WX    TMP DP  RH WIND       PRES   REMARKS
BURLINGTON       N/A     79  77  94 SE3       29.93F HX  83
6HR MIN TEMP:  77; 6HR MAX TEMP:  84;

FAIRFIELD *    CLEAR     77  75  94 E3        29.95R
FORT MADISON * CLEAR     79  77  94 CALM      29.95S HX  83
KEOKUK *       CLEAR     77  77 100 CALM      29.93F
OSKALOOSA *      N/A     76  75  96 E3        29.95R FOG
CENTERVILLE *  CLEAR     75  75 100 CALM      29.95F
OTTUMWA          N/A     77  75  93 E3        29.94R FOG
6HR MIN TEMP:  76; 6HR MAX TEMP:  83;

WASHINGTON *   CLEAR     75  75 100 CALM      29.94S FOG
$$

ABBREVIATIONS USED IN REMARKS
   TC - TEMPERATURES IN CELSIUS
  WCI - WIND CHILL INDEX
   HX - HEAT INDEX
  VSB - VISIBILITY
$$



USA.gov is the U.S. government's official web portal to all federal, state and local government web resources and services.